Flag for Germany Weather past 2 weeks in Emmerich am Rhein, North Rhine-Westphalia, Germany

Now
82 °F

Sunny.


Feels Like: 85 °F
Forecast: 67 / 87 °F
Wind: 7 mph from North

Location: Niederrhein

Current Time: Jul 2, 2015 at 8:16:21 PM

Latest Report: Jul 2, 2015 at 7:50 PM


Visibility: 10 mi

Pressure: 30.07 "Hg

Humidity: 62%

Dew point: 68 °F

Location of Emmerich am RheinLocation

Historic Weather in Emmerich am Rhein — Graph

°F

Emmerich am Rhein temperature yesterday

Maximum temperature yesterday: 95 °F (at 5:20 PM)
Minimum temperature yesterday: 63 °F (at 4:50 AM)
Average temperature yesterday: 83 °F

Past Weeks' High & Low Weather Summary

 TemperatureHumidityPressure
High100 °F (Jul 2, 3:50 PM)100% (Jun 18, 5:50 AM)30.21 "Hg (Jun 18, 5:50 AM)
Low50 °F (Jun 20, 4:50 AM)24% (Jul 1, 3:20 PM)29.68 "Hg (Jun 22, 7:50 PM)
Average66 °F66%30.06 "Hg
* Reported Jun 17 6:20 PM — Jul 2 6:50 PM, Emmerich am Rhein, Weather by CustomWeather, © 2015

Note: Actual official high and low records may vary slightly from our data, if they occured in-between our weather recording intervals... More about our weather records

Advertising

Emmerich am Rhein weather history for previous 24 hours

 ConditionsComfort  
Time TempWeatherWind HumidityBarometerVisibility
6:50 PM
Thu, Jul 2
84 °FPassing clouds.9 mph58%30.07 "HgN/A
6:20 PM88 °FScattered showers. Scattered clouds.9 mph55%30.04 "HgN/A
5:50 PM88 °FSprinkles. Clear.7 mph52%30.04 "HgN/A
5:20 PM97 °FPassing clouds.5 mph32%30.01 "HgN/A
4:50 PM100 °FSunny.3 mph29%30.01 "Hg10 mi
4:20 PM100 °FPassing clouds.7 mph27%30.04 "HgN/A
3:50 PM100 °FPassing clouds.6 mph27%30.04 "HgN/A
3:20 PM99 °FPassing clouds.9 mph29%30.01 "HgN/A
2:50 PM99 °FPassing clouds.9 mph31%30.01 "HgN/A
2:20 PM97 °FPassing clouds.7 mph32%30.04 "HgN/A
1:50 PM97 °FPassing clouds.8 mph32%30.04 "HgN/A
1:20 PM95 °FPassing clouds.8 mph36%30.04 "HgN/A
12:50 PM95 °FPassing clouds.8 mph36%30.04 "HgN/A
12:20 PM93 °FPassing clouds.9 mph39%30.04 "HgN/A
11:50 AM91 °FPassing clouds.8 mph38%30.04 "HgN/A
11:20 AM91 °FPassing clouds.7 mph38%30.04 "HgN/A
10:50 AM90 °FPassing clouds.8 mph41%30.04 "HgN/A
10:20 AM88 °FPassing clouds.7 mph43%30.04 "HgN/A
9:50 AM86 °FPassing clouds.7 mph46%30.04 "HgN/A
9:20 AM84 °FPassing clouds.9 mph48%30.04 "HgN/A
8:50 AM82 °FPassing clouds.9 mph48%30.04 "HgN/A
8:20 AM81 °FPassing clouds.8 mph51%30.04 "HgN/A
7:50 AM79 °FSunny.8 mph54%30.04 "Hg10 mi
7:20 AM79 °FClear.7 mph54%30.04 "Hg10 mi
6:50 AM77 °FClear.6 mph54%30.04 "Hg10 mi
6:20 AM75 °FClear.7 mph57%30.04 "Hg10 mi
5:50 AM75 °FClear.6 mph57%30.01 "Hg10 mi
5:20 AM75 °FClear.7 mph57%30.01 "Hg10 mi
4:50 AM75 °FClear.7 mph57%30.01 "Hg10 mi
11:50 PM
Wed, Jul 1
81 °FPassing clouds.6 mph45%30.01 "HgN/A
10:50 PM81 °FPassing clouds.5 mph42%30.01 "HgN/A
10:20 PM82 °FPassing clouds.5 mph40%30.01 "HgN/A
9:50 PM84 °FPassing clouds.5 mph40%30.01 "HgN/A
9:20 PM88 °FPassing clouds.6 mph35%29.98 "HgN/A
8:50 PM90 °FPassing clouds.6 mph31%29.98 "HgN/A
8:20 PM91 °FPassing clouds.6 mph30%29.98 "HgN/A
Weather by CustomWeather, © 2015

See weather overviewHow to use our weather pages